This is the latest recevied weather packets stored in our database for station/object DL1AIE-13. If no packets are shown the sender has not sent any weather packets the latest 10 day(s).
| Time | Temp. | Humidity | Pressure | Rain* | Wind** | Luminosity | Snow |
|---|---|---|---|---|---|---|---|
| 1777808846 | 23.33° C | 36% | 1014.2 hPa | 0 mm | - | - | - |
| 1777808242 | 23.33° C | 36% | 1014.4 hPa | 0 mm | - | - | - |
| 1777807638 | 21.11° C | 39% | 1014.5 hPa | 0 mm | - | - | - |
| 1777807054 | 21.11° C | 39% | 1014.5 hPa | 0 mm | - | - | - |
| 1777806451 | 21.11° C | 40% | 1014.7 hPa | 0 mm | - | - | - |
| 1777805848 | 20° C | 45% | 1014.8 hPa | 0 mm | - | - | - |
| 1777805244 | 19.44° C | 47% | 1014.9 hPa | 0 mm | - | - | - |
| 1777804640 | 19.44° C | 45% | 1014.8 hPa | 0 mm | - | - | - |
| 1777804037 | 19.44° C | 44% | 1014.9 hPa | 0 mm | - | - | - |
| 1777803455 | 19.44° C | 42% | 1015.1 hPa | 0 mm | - | - | - |
| 1777802848 | 19.44° C | 43% | 1015.1 hPa | 0 mm | - | - | - |
| 1777802245 | 20° C | 43% | 1015.2 hPa | 0 mm | - | - | - |
| 1777801642 | 20° C | 42% | 1015.1 hPa | 0 mm | - | - | - |
| 1777801038 | 20.56° C | 41% | 1015.3 hPa | 0 mm | - | - | - |
| 1777800455 | 20.56° C | 41% | 1015.4 hPa | 0 mm | - | - | - |
| 1777799850 | 20° C | 44% | 1015.6 hPa | 0 mm | - | - | - |
| 1777799247 | 19.44° C | 43% | 1015.6 hPa | 0 mm | - | - | - |
| 1777798643 | 20° C | 46% | 1015.5 hPa | 0 mm | - | - | - |
| 1777798039 | 20.56° C | 46% | 1015.4 hPa | 0 mm | - | - | - |
| 1777797436 | 18.89° C | 54% | 1015.7 hPa | 0 mm | - | - | - |
| 1777796852 | 18.33° C | 55% | 1015.7 hPa | 0 mm | - | - | - |
| 1777796249 | 17.22° C | 60% | 1015.6 hPa | 0 mm | - | - | - |
| 1777795646 | 16.11° C | 71% | 1015.8 hPa | 0 mm | - | - | - |
| 1777795042 | 15.56° C | 75% | 1015.9 hPa | 0 mm | - | - | - |
| 1777794439 | 15° C | 76% | 1015.9 hPa | 0 mm | - | - | - |
* Rain latest hour (hover to see other rain measurements)
** Current wind speed in m/s (hover to see current wind gust speed)